Portada
METAR-TAF:

METAR-TAF

Aeroports :

Sapporo, Japó

latitud: 43-07N, longitud: 141-23E, altitud: 8 m

Observació

L'informe es va fer fa 1 hora i 3 minuts, a les 03:00 UTC
Vent 6 kt del Sud-Est
Temperatura 16°C
Humitat 55%
Pressió 1021 hPa
Visibilitat 10 km o més
Escasses núvols a una alçada de 3000 ft

METAR: RJCO 120300Z 13006KT 9999 FEW030 16/07 Q1021

Hora: 13:03 (04:03 UTC)


TAF: manca

Observacions i pronòstics meteorològics de més de 4000 aeroports (METAR i TAF).

Les estacions disponibles són els punts grocs i vermells al mapa.

Posi el ratolí al punt desitjat per veure el nom de l'estació.

Feu clic per veure les observacions i els pronòstics meteorològics.

Per canviar el mapa: feu clic els botons verds amb una creu de color negre per apropar; al botó verd amb un guió per allunyar la imatge; o en les fletxes verdes per a mapes adjacents.


METAR-TAF: